Regional Weather Roundup
Issued by NWS New Orleans/Baton Rouge, LA

Home | Current Version | Previous Version | Graphics & Text | Print | Product List | Glossary On
Versions: 1 2 3 4 5 6 7 8 9 10 11 12 13 14 15 16 17 18 19 20 21 22 23 24 25 26 27 28 29 30 31 32 33 34 35 36 37 38 39 40 41 42 43 44 45 46 47 48 49 50
999
ASUS44 KLIX 251610
RWRLIX
NEW ORLEANS REGIONAL WEATHER ROUNDUP
NATIONAL WEATHER SERVICE NEW ORLEANS LA
1100 AM CDT SAT OCT 25 2014

NOTE: "FAIR" INDICATES FEW OR NO CLOUDS BELOW 12,000 FEET WITH NO
      SIGNIFICANT WEATHER AND/OR OBSTRUCTIONS TO VISIBILITY.
      SKY/WX - SKY CONDITION AND SIGNIFICANT WEATHER.
      TMP - AIR TEMPERATURE.     DP    - DEWPOINT TEMPERATURE.
      RH  - RELATIVE HUMIDITY.   PRES  - PRESSURE.
      HI  - HEAT INDEX.          WCI   - WIND CHILL INDEX.

*  THESE STATIONS ARE NOT NWS OR FAA STATIONS AND ARE NOT UNDER
   NWS QUALITY CONTROL.

LAZ038-040-048-061>063-065>067-069-251700-
SOUTHEAST LOUISIANA

CITY           SKY/WX    TMP DP  RH WIND       PRES   REMARKS
N.O. AUDUBON     N/A     76  53  44 MISG        N/A
N.O. INTL ARPT SUNNY     71  52  50 NE7       30.17R
N.O. LAKEFRONT SUNNY     69  53  56 NE6       30.17S
N.O. DOWNTOWN*   N/A     70  48  46 NE6       30.17S
SLIDELL        SUNNY     72  52  49 VRB7      30.16S
BATON ROUGE    SUNNY     72  52  49 NE6       30.18S
BOOTHVILLE     SUNNY     72  55  55 NE8       30.15S
BELLE CHASSE   SUNNY     72  51  47 NE9       30.16S
BOGALUSA*        N/A     73  52  48 NE7       30.18S
NEW ROADS*       N/A     70  52  51 CALM      30.18S
GONZALES*        N/A     70  53  53 NE5       30.17S
HAMMOND*       SUNNY     73  50  43 N3        30.18S
HOUMA*         SUNNY     72  54  53 NE9       30.17R
PORT FOURCHON* SUNNY     72  52  49 NE12      30.19S

$$

MSZ070-080>082-251700-
SOUTHERN MISSISSIPPI

CITY           SKY/WX    TMP DP  RH WIND       PRES   REMARKS
MCCOMB         SUNNY     71  51  49 NE5       30.17F
GULFPORT       SUNNY     73  53  49 NE7       30.15S
BILOXI         SUNNY     72  52  49 NE9       30.15S
PASCAGOULA     SUNNY     72  52  49 N10       30.15S
STENNIS ARPT*  SUNNY     72  50  46 N7        30.16S

$$

COASTAL OBSERVATIONS
LAKE AND NEARSHORE STATIONS

STATION/POSITION TIME  TEMP    WIND        PRES    WAVE
                       AIR SEA DIR/SP/G            HT/PER
                 (UTC) (F)     (DEG/KT/KT) (MB)    (FT/S)
PASCAGOULA       1600   69      30/  9/ 12 1020.1
WAVELAND YACHT   1600   68      20/  7/  8 1020.5
GRAND ISLE       1600   70 71   40/  7/ 12 1021.6
SOUTHWEST PASS   1600   72 80   20/ 12/ 14 1021.0
NEW CANAL        1600   65 69   40/  5/  6 1022.0
SHELL BEACH      1600   66 65   10/  7/  8 1021.1

OFFSHORE STATIONS

STATION/POSITION TIME  TEMP    WIND        PRES    WAVE
                       AIR SEA DIR/SP/G            HT/PER
                 (UTC) (F)     (DEG/KT/KT) (MB)    (FT/S)
64 S DAUPHIN ISL 1453   72 78   30/ 14/ 17 1020.5    3/ 5

$$




USA.gov is the U.S. government's official web portal to all federal, state and local government web resources and services.